| time (UTC) | temp F | wind direction | speed knots | gust knots | rain 1hr in | rain 24hr in | rain mn in | humidity % | barometer mb |
| 20260503070710 | 46 | 298 | 6.1 | 7.8 | 0.00 | 0.00 | 0.00 | 83 | 1008.4 |
| 20260503054711 | 44 | 325 | 9.6 | 11.3 | 0.00 | 0.00 | 0.00 | 88 | 1007.8 |
| 20260503052710 | 44 | 323 | 10.4 | 12.2 | 0.00 | 0.00 | 0.00 | 87 | 1007.5 |
| 20260503050710 | 45 | 317 | 9.6 | 11.3 | 0.00 | 0.00 | 0.00 | 81 | 1007.4 |
| 20260503044710 | 45 | 323 | 9.6 | 11.3 | 0.00 | 0.00 | 0.00 | 80 | 1007.0 |
| 20260503042710 | 45 | 311 | 10.4 | 13.0 | 0.00 | 0.00 | 0.00 | 82 | 1007.2 |
| 20260503040710 | 45 | 310 | 10.4 | 13.0 | 0.00 | 0.00 | 0.00 | 81 | 1006.7 |
| 20260503034710 | 46 | 306 | 13.9 | 15.6 | 0.00 | 0.00 | 0.00 | 80 | 1006.8 |
| 20260503032710 | 45 | 310 | 11.3 | 14.8 | 0.00 | 0.00 | 0.00 | 81 | 1006.3 |
| 20260503030711 | 45 | 317 | 13.9 | 16.5 | 0.00 | 0.00 | 0.00 | 83 | 1006.3 |
| 20260503024711 | 44 | 309 | 13.0 | 14.8 | 0.00 | 0.00 | 0.00 | 87 | 1006.2 |
| 20260503022710 | 44 | 311 | 13.9 | 15.6 | 0.00 | 0.00 | 0.00 | 86 | 1005.8 |
| 20260503020710 | 44 | 313 | 10.4 | 11.3 | 0.00 | 0.00 | 0.00 | 84 | 1005.9 |
| 20260503014710 | 44 | 295 | 11.3 | 13.0 | 0.00 | 0.00 | 0.00 | 84 | 1005.9 |
| 20260503012710 | 45 | 280 | 11.3 | 13.9 | 0.00 | 0.00 | 0.00 | 83 | 1005.8 |
| 20260503010710 | 45 | 273 | 12.2 | 14.8 | 0.00 | 0.00 | 0.00 | 82 | 1005.8 |
| 20260503004711 | 45 | 275 | 12.2 | 15.6 | 0.00 | 0.00 | 0.00 | 82 | 1005.8 |
| 20260503002710 | 44 | 256 | 10.4 | 15.6 | 0.00 | 0.00 | 0.00 | 84 | 1005.9 |
| 20260503000710 | 45 | 249 | 11.3 | 13.9 | 0.00 | 0.00 | 0.00 | 82 | 1005.9 |
| 20260502234710 | 45 | 241 | 11.3 | 14.8 | 0.00 | 0.00 | 0.00 | 84 | 1005.9 |
| 20260502232710 | 45 | 240 | 10.4 | 13.9 | 0.00 | 0.00 | 0.00 | 84 | 1006.1 |
| 20260502230709 | 45 | 228 | 13.0 | 17.4 | 0.00 | 0.00 | 0.00 | 82 | 1006.2 |
| 20260502224710 | 45 | 223 | 14.8 | 20.0 | 0.00 | 0.00 | 0.00 | 83 | 1006.3 |
| 20260502222710 | 45 | 221 | 14.8 | 20.0 | 0.00 | 0.00 | 0.00 | 84 | 1006.4 |
| 20260502220711 | 45 | 214 | 14.8 | 17.4 | 0.00 | 0.00 | 0.00 | 84 | 1006.6 |
| 20260502214709 | 45 | 222 | 15.6 | 20.0 | 0.00 | 0.00 | 0.00 | 83 | 1006.9 |
| 20260502212709 | 45 | 217 | 13.0 | 16.5 | 0.00 | 0.00 | 0.00 | 83 | 1007.1 |
| 20260502210710 | 45 | 216 | 13.0 | 17.4 | 0.00 | 0.00 | 0.00 | 83 | 1007.1 |
| 20260502204710 | 45 | 213 | 15.6 | 18.2 | 0.00 | 0.00 | 0.00 | 82 | 1007.3 |
| 20260502202709 | 45 | 209 | 14.8 | 17.4 | 0.00 | 0.00 | 0.00 | 83 | 1007.4 |
| 20260502200710 | 45 | 207 | 14.8 | 17.4 | 0.00 | 0.00 | 0.00 | 82 | 1007.6 |
| 20260502194709 | 45 | 206 | 14.8 | 19.1 | 0.00 | 0.00 | 0.00 | 81 | 1007.8 |
| 20260502192709 | 46 | 207 | 15.6 | 19.1 | 0.00 | 0.00 | 0.00 | 80 | 1008.0 |
| 20260502190708 | 46 | 207 | 15.6 | 21.7 | 0.00 | 0.00 | 0.00 | 78 | 1008.1 |
| 20260502184708 | 46 | 204 | 16.5 | 20.9 | 0.00 | 0.00 | 0.00 | 77 | 1008.2 |
| 20260502182709 | 46 | 206 | 13.9 | 18.2 | 0.00 | 0.00 | 0.00 | 78 | 1008.3 |
| 20260502180708 | 46 | 208 | 14.8 | 18.2 | 0.00 | 0.00 | 0.00 | 78 | 1008.5 |
| 20260502162708 | 49 | 222 | 16.5 | 20.9 | 0.00 | 0.00 | 0.00 | 69 | 1009.5 |
| 20260502160708 | 50 | 224 | 17.4 | 23.5 | 0.00 | 0.00 | 0.00 | 67 | 1009.7 |
| 20260502150708 | 50 | 226 | 19.1 | 26.9 | 0.00 | 0.00 | 0.00 | 65 | 1010.6 |
| 20260502130708 | 52 | 235 | 13.0 | 20.9 | 0.00 | 0.00 | 0.00 | 63 | 1011.6 |
| 20260502122707 | 50 | 222 | 15.6 | 21.7 | 0.00 | 0.00 | 0.00 | 66 | 1011.6 |
| 20260502120708 | 50 | 224 | 20.0 | 24.3 | 0.00 | 0.00 | 0.00 | 66 | 1011.8 |
| 20260502114708 | 52 | 236 | 16.5 | 25.2 | 0.00 | 0.00 | 0.00 | 60 | 1011.8 |
| 20260502112707 | 51 | 238 | 17.4 | 24.3 | 0.00 | 0.00 | 0.00 | 64 | 1012.0 |
| 20260502110707 | 50 | 240 | 16.5 | 22.6 | 0.00 | 0.00 | 0.00 | 64 | 1011.9 |
| 20260502104707 | 50 | 239 | 18.2 | 25.2 | 0.00 | 0.00 | 0.00 | 66 | 1012.0 |
| 20260502102707 | 50 | 242 | 20.9 | 26.9 | 0.00 | 0.00 | 0.00 | 63 | 1012.0 |
| 20260502100707 | 51 | 247 | 19.1 | 23.5 | 0.00 | 0.00 | 0.00 | 61 | 1011.9 |
| 20260502090707 | 50 | 237 | 13.0 | 19.1 | 0.00 | 0.00 | 0.00 | 65 | 1012.2 |